Theta_e
286 286 286 286 286 286 286 285 285 285 285 285 285 284 284 284 284 284 284 284 284 284 284 284 284 284 284 285 285 285 285 285 286 286 287 287 287 287 288 288 288 288 288 288 288 288 288 289 289 289 289 289 289 289 289 290 290 290 290 290 290 291 291 291 291 292 292 292 292 293 293 293 293 293 293 293 293 293 293 293 293 293 293 293 293 293
286 286 286 286 286 286 285 285 285 285 285 285 284 284 284 284 284 284 284 284 284 284 284 284 284 284 284 285 285 285 285 285 286 286 286 287 287 287 287 287 287 287 288 288 288 288 288 288 288 288 289 289 289 289 289 289 289 290 290 290 290 290 291 291 291 291 291 292 292 292 292 292 292 292 292 292 292 292 292 292 292 292 292 293 293 293
286 286 286 286 286 286 285 285 285 285 285 284 284 284 284 284 284 284 284 284 284 284 284 284 284 284 285 285 284 284 284 285 285 286 286 286 286 287 287 287 287 287 287 287 287 288 288 288 288 288 288 288 289 289 289 289 289 289 290 290 290 290 290 291 291 291 291 291 291 291 291 291 291 291 291 291 291 291 292 292 292 292 292 292 292 293
286 286 286 286 286 285 285 285 285 285 284 284 284 284 284 284 284 284 284 284 284 284 284 284 284 284 284 284 284 284 284 284 285 285 285 286 286 286 286 286 286 287 287 287 287 287 287 288 288 288 288 288 288 289 289 289 289 289 289 290 290 290 290 290 290 290 290 290 290 290 290 290 290 290 290 290 291 291 291 291 292 292 292 292 292 292
286 286 286 286 285 285 285 285 285 284 284 284 284 284 284 284 284 284 284 284 284 284 284 284 284 284 284 283 283 283 283 284 284 284 285 285 285 285 285 286 286 286 286 287 287 287 287 287 287 288 288 288 288 288 289 289 289 289 289 289 289 289 289 289 289 289 289 289 289 289 289 289 289 290 290 290 290 290 291 291 291 291 291 292 292 292
286 286 286 286 285 285 285 285 284 284 284 284 284 284 284 284 284 284 284 284 284 284 284 284 284 283 283 283 283 282 283 283 283 284 284 284 284 285 285 285 285 286 286 286 286 287 287 287 287 288 288 288 288 288 288 288 289 289 289 289 289 289 289 289 289 289 289 289 289 289 289 289 289 289 289 290 290 290 290 290 291 291 291 291 292 292
286 286 286 285 285 285 285 284 284 284 284 284 284 284 284 284 284 284 284 284 284 284 284 283 283 283 282 282 282 282 282 283 283 283 283 283 284 284 284 285 285 285 286 286 286 287 287 287 287 287 287 288 288 288 288 288 288 288 288 288 288 288 288 288 288 288 288 288 288 288 288 288 289 289 289 289 289 290 290 290 290 291 291 291 291 291
286 286 286 285 285 285 284 284 284 284 284 284 284 284 284 284 284 284 284 284 284 283 283 282 282 282 282 282 282 282 282 282 283 283 283 283 283 284 284 284 285 285 286 286 286 286 287 287 287 287 287 287 287 287 287 287 287 287 287 287 287 287 287 287 287 287 287 287 288 288 288 288 288 289 289 289 289 289 290 290 290 290 290 291 291 291
286 286 285 285 285 285 284 284 284 284 284 284 284 284 284 284 284 283 283 283 283 282 282 282 282 282 282 282 282 282 282 282 283 283 283 283 283 284 284 284 285 285 285 286 286 286 286 286 286 286 286 287 286 286 287 287 287 286 286 286 286 286 286 287 287 287 287 287 287 287 288 288 288 288 288 289 289 289 289 289 290 290 290 291 291 291
286 286 285 285 285 284 284 284 284 284 284 285 285 285 284 284 283 283 283 282 282 282 282 282 282 282 282 282 282 282 282 283 283 283 283 283 284 284 284 284 284 285 285 285 285 286 286 286 286 286 286 286 286 286 286 286 286 286 286 286 286 286 286 286 286 286 286 287 287 287 287 288 288 288 288 289 289 289 289 289 290 290 290 291 291 291
286 285 285 285 284 284 284 284 284 285 285 285 284 284 283 283 283 283 282 282 282 282 282 282 282 282 282 282 282 283 283 283 283 283 283 283 284 284 284 284 284 284 284 285 285 285 285 285 285 285 285 285 285 285 285 285 285 285 285 285 285 285 285 285 286 286 286 286 287 287 287 288 288 288 288 289 289 289 289 290 290 290 290 291 291 291
285 285 285 284 284 284 284 284 285 285 285 284 284 283 283 283 283 283 282 282 282 282 282 282 282 282 282 282 283 283 283 283 283 283 283 284 284 284 284 284 284 284 284 284 284 284 284 284 284 284 284 284 284 284 284 284 284 284 284 284 284 284 285 285 285 286 286 286 287 287 288 288 288 288 288 289 289 289 289 289 290 290 290 290 290 291
285 285 285 284 284 285 285 285 285 285 284 283 283 283 283 283 283 283 282 282 282 282 282 282 282 282 283 283 283 283 283 283 283 284 284 284 284 284 284 284 284 283 283 283 283 283 283 283 283 283 283 283 283 283 283 283 283 283 283 284 284 284 285 285 286 286 286 287 287 287 288 288 288 288 288 288 288 289 289 289 289 289 290 290 290 290
285 285 285 285 285 285 286 285 285 284 283 283 283 283 283 283 283 283 282 282 282 282 282 282 283 283 283 283 283 283 284 284 284 284 284 284 284 284 284 284 283 283 283 283 283 282 282 282 282 282 282 282 282 282 282 282 282 283 283 284 284 285 285 285 286 286 286 287 287 287 287 287 288 288 288 288 288 288 288 289 289 289 289 289 290 290
285 285 285 286 286 286 285 284 283 283 283 283 283 283 283 283 283 283 282 282 282 282 283 283 283 283 283 284 284 284 284 284 284 284 284 284 284 283 283 283 283 283 282 282 282 282 282 282 282 282 282 282 282 282 282 282 282 283 284 284 284 285 285 285 286 286 286 286 287 287 287 287 287 288 288 288 288 288 288 288 289 289 289 289 290 290
285 286 286 286 285 285 284 283 283 283 283 283 283 283 283 283 283 283 283 283 283 283 283 283 283 284 284 284 284 284 284 284 284 284 284 283 283 283 283 283 282 282 282 282 282 282 282 282 282 281 281 281 281 282 282 282 283 283 284 284 285 285 285 285 286 286 286 286 286 287 287 287 287 288 288 288 288 288 288 288 289 289 289 289 289 289
286 286 286 285 284 284 283 283 283 283 283 283 283 283 283 283 283 283 283 283 283 283 283 284 284 284 284 284 284 284 284 284 284 283 283 283 283 283 282 282 282 282 282 282 282 282 281 281 281 281 281 281 281 282 282 283 283 284 284 284 284 285 285 285 285 286 286 286 286 287 287 287 287 287 287 288 288 288 288 288 288 288 289 289 289 289
286 285 285 284 284 283 283 283 283 283 283 283 283 283 283 283 283 283 283 283 283 284 284 284 284 284 284 284 284 284 284 283 283 283 283 282 282 282 282 282 282 282 281 281 281 281 281 281 281 281 281 281 282 282 283 283 283 283 284 284 284 285 285 285 285 286 286 286 286 287 287 287 287 287 287 287 288 288 288 288 288 288 288 289 289 289
285 285 284 284 283 283 283 283 283 283 283 283 283 283 283 283 283 283 283 284 284 284 284 284 284 284 284 284 284 284 283 283 282 282 282 282 282 282 282 282 282 281 281 281 281 281 281 281 281 281 281 281 282 282 282 283 283 283 284 284 284 285 285 285 285 286 286 286 286 286 287 287 287 287 287 287 287 287 288 288 288 288 288 288 288 289
284 284 284 284 283 283 283 283 283 283 284 284 284 283 283 283 284 284 284 284 284 284 284 284 284 284 284 284 283 283 283 282 282 282 282 282 282 282 281 281 281 281 281 281 281 281 281 281 281 281 281 281 281 282 282 283 283 283 284 284 284 285 285 285 285 285 286 286 286 286 286 287 287 287 287 287 287 287 287 287 287 288 288 288 288 288
284 284 284 284 283 283 283 284 284 284 284 284 284 284 284 284 284 284 284 284 284 284 284 284 284 284 283 283 283 282 282 282 281 281 281 281 281 281 281 281 281 281 281 281 281 281 281 281 281 281 281 281 281 282 282 283 283 283 284 284 284 284 285 285 285 285 285 286 286 286 286 286 287 287 287 287 287 287 287 287 288 288 288 288 288 288
284 284 284 284 284 284 284 284 284 284 284 284 284 284 284 284 284 284 284 284 284 284 284 284 283 283 283 282 282 282 281 281 281 281 281 281 281 281 281 281 281 281 281 281 281 281 281 281 281 281 281 281 281 282 282 283 283 283 283 284 284 284 284 285 285 285 285 285 286 286 286 286 286 286 287 287 287 287 287 287 287 288 288 288 288 288
284 284 284 284 284 284 284 284 284 284 284 284 284 284 284 284 284 284 284 284 284 284 283 283 282 282 282 282 281 281 281 281 281 281 281 281 281 281 281 281 281 281 281 281 281 281 281 281 281 281 281 281 281 282 282 282 283 283 283 284 284 284 284 284 285 285 285 285 285 286 286 286 286 286 286 287 287 287 287 287 287 287 287 287 288 288
284 284 284 284 284 284 284 284 285 285 285 285 286 285 285 285 284 284 284 284 283 283 282 282 282 282 281 281 281 281 281 281 281 280 280 280 281 281 281 281 281 281 281 281 281 281 281 281 281 281 281 281 281 282 282 282 283 283 283 283 284 284 284 284 284 285 285 285 285 285 285 286 286 286 286 286 286 286 286 287 287 287 287 287 287 287
284 284 284 284 285 285 285 285 286 286 286 286 286 285 285 284 284 283 283 283 282 282 282 282 282 281 281 281 281 281 280 280 280 280 280 280 280 280 281 281 281 281 281 281 281 281 281 281 281 281 281 281 281 281 282 282 282 283 283 283 283 283 284 284 284 284 285 285 285 285 285 285 285 285 286 286 286 286 286 286 286 287 287 287 287 287
284 284 285 285 285 285 286 286 286 285 285 285 284 284 283 283 283 283 283 282 282 282 282 281 281 281 281 280 280 280 280 280 280 280 280 280 280 281 281 281 281 281 281 281 281 281 281 281 281 281 281 281 281 281 281 282 282 282 282 283 283 283 283 284 284 284 284 284 284 284 285 285 285 285 285 285 286 286 286 286 286 287 287 287 287 287
284 284 285 285 285 285 284 284 284 284 283 283 283 283 283 283 283 283 282 282 282 282 281 281 281 281 280 280 280 280 280 280 280 280 280 280 280 281 281 281 281 281 281 281 281 281 281 281 281 281 281 281 281 281 281 281 281 282 282 282 283 283 283 283 283 283 284 284 284 284 284 284 284 285 285 285 285 286 286 286 286 286 287 287 287 287
284 284 284 284 284 283 283 283 282 282 282 282 282 282 282 283 282 282 282 282 281 281 281 281 280 280 280 280 280 280 280 280 280 281 281 281 281 281 281 281 281 281 281 281 281 281 281 281 281 281 281 281 281 281 281 281 281 281 282 282 282 282 282 282 283 283 283 283 283 283 284 284 284 284 285 285 285 285 286 286 286 286 286 286 286 286
283 283 283 283 282 282 282 281 281 281 281 281 281 282 282 282 282 282 281 281 281 281 280 280 280 280 280 280 280 280 280 280 281 281 281 281 281 281 281 281 281 281 281 281 281 281 281 281 281 281 281 281 281 281 281 281 281 281 281 281 281 281 282 282 282 282 282 283 283 283 283 284 284 284 284 285 285 285 285 285 286 286 286 286 286 286
282 282 282 282 282 281 281 281 281 281 280 281 281 281 281 281 281 281 281 280 280 280 280 280 280 280 280 280 280 280 280 281 281 281 281 281 281 281 281 281 281 281 281 281 281 281 281 281 281 281 281 281 281 281 281 281 280 280 280 281 281 281 281 281 281 282 282 282 283 283 283 283 284 284 284 284 284 285 285 285 285 285 285 285 285 285
282 281 281 281 281 281 281 281 280 280 280 280 280 280 280 280 280 280 280 280 280 280 280 280 280 280 280 280 280 280 280 281 281 281 281 281 280 281 281 281 280 280 280 280 280 281 280 281 281 281 281 281 280 280 280 280 280 280 280 280 280 281 281 281 281 282 282 282 282 283 283 283 283 283 283 284 284 284 284 284 284 285 285 285 285 285
281 281 281 281 281 281 280 280 280 280 280 280 280 280 280 280 280 280 280 280 280 280 280 280 280 280 280 280 280 280 280 280 281 280 280 280 280 280 280 280 280 280 280 280 280 280 280 280 280 280 280 280 280 280 280 280 280 280 280 280 280 281 281 281 281 281 281 282 282 282 282 282 282 283 283 283 283 283 284 284 284 284 284 285 285 285
281 281 281 281 280 280 280 280 280 280 280 280 280 280 280 280 280 280 280 280 280 280 280 280 280 280 280 280 280 280 280 280 280 280 280 280 280 280 280 280 280 280 280 280 280 280 280 280 280 280 280 280 280 280 280 280 280 280 281 281 281 281 281 281 281 281 281 281 281 281 281 282 282 282 282 282 283 283 283 283 284 284 284 284 284 284
281 281 280 280 280 280 280 280 280 280 280 280 280 279 279 279 279 280 280 280 280 280 280 280 280 280 280 280 280 280 280 280 280 280 280 280 280 280 280 280 280 280 280 280 280 280 280 280 280 280 280 280 280 280 280 280 280 280 280 281 280 280 280 280 281 281 281 281 281 281 281 281 281 281 281 282 282 282 282 283 283 283 284 284 284 285
280 280 280 280 280 280 280 280 280 280 280 280 279 279 279 279 279 279 279 279 279 279 279 279 279 279 279 279 280 280 280 280 280 280 280 280 280 280 280 280 280 280 280 280 280 280 280 280 280 280 280 280 280 280 280 280 280 280 281 280 280 280 280 280 280 280 281 281 281 281 281 281 281 281 281 281 281 282 282 283 283 284 284 284 285 285
280 280 280 280 279 280 280 279 279 279 279 279 279 279 279 279 279 279 279 279 279 279 279 279 279 279 279 279 280 279 280 280 280 280 280 280 280 280 280 280 280 280 280 280 280 280 280 280 280 280 280 280 280 280 281 281 281 281 281 281 281 281 281 281 281 281 281 281 281 281 281 281 281 281 281 281 281 282 282 283 283 284 284 284 285 285
279 279 279 279 279 279 279 279 279 279 279 279 279 279 279 279 279 279 279 279 279 279 279 279 279 279 279 279 279 279 279 279 279 279 279 279 279 279 279 279 280 279 280 280 280 280 280 280 280 280 280 280 280 280 281 281 281 281 281 281 281 281 281 281 281 281 281 281 281 281 281 281 281 281 281 282 282 282 282 283 283 283 283 284 284 284
279 279 279 279 279 279 279 279 279 279 279 279 279 279 279 279 279 279 279 279 279 279 279 279 279 279 279 279 279 279 279 279 279 279 279 279 279 279 279 279 279 279 279 280 280 280 280 280 280 280 280 280 280 280 281 281 281 281 281 281 281 281 281 281 281 281 281 281 281 281 281 281 282 282 282 282 282 282 282 282 282 282 283 283 283 283
279 279 279 279 279 279 279 279 279 279 279 279 279 279 279 279 279 279 279 279 279 279 279 279 279 279 279 279 279 279 279 279 279 279 279 279 279 279 279 279 279 279 279 279 279 279 280 280 280 280 280 280 280 280 280 280 281 281 281 281 281 281 281 281 281 281 281 281 281 281 282 282 282 282 282 282 282 282 282 282 282 282 282 282 283 283
279 279 279 279 279 279 279 279 279 279 279 279 279 279 278 278 278 279 279 279 279 279 279 279 279 279 279 279 279 279 279 279 279 279 279 280 280 279 279 279 279 279 279 279 279 280 280 280 280 280 280 280 280 280 280 280 281 281 281 281 281 281 281 281 281 281 281 281 281 281 281 282 282 282 282 282 282 282 282 282 282 282 282 282 282 283
279 279 279 279 279 279 279 278 278 278 278 278 278 278 278 278 278 278 279 279 279 279 279 279 279 279 279 279 279 279 279 279 280 280 280 280 280 280 280 280 279 279 279 279 280 280 280 280 280 280 280 280 280 280 280 280 281 281 281 281 281 281 281 281 282 282 282 282 282 282 282 282 282 282 282 282 282 282 282 282 282 282 282 283 283 283
279 279 279 279 278 278 278 278 278 278 278 278 278 278 278 278 278 278 279 279 279 279 279 279 279 279 279 279 279 280 280 280 280 280 280 280 280 280 280 280 280 280 279 279 279 280 280 280 280 280 280 280 280 280 280 280 281 281 281 281 281 281 281 282 282 282 282 282 282 282 282 282 282 282 282 282 282 282 282 283 283 283 283 283 283 283
278 278 278 278 278 278 278 278 278 278 278 278 278 278 278 278 278 278 279 279 279 279 279 279 279 279 279 279 280 280 280 280 280 280 280 280 280 280 280 280 280 280 280 279 279 280 280 280 280 280 280 280 280 280 280 281 281 281 281 281 281 281 282 282 282 282 282 282 282 282 282 282 282 282 282 282 282 283 283 283 283 283 283 283 283 283
278 278 278 278 278 278 278 278 278 278 278 278 278 278 278 278 278 278 278 279 279 279 279 279 279 279 279 280 280 280 280 280 280 280 280 280 280 280 280 280 280 280 280 280 280 280 280 280 280 280 280 280 280 280 281 281 281 281 281 281 281 281 282 282 282 282 282 282 282 282 282 282 282 282 282 282 282 282 283 283 283 283 283 283 283 283
278 278 278 278 278 278 278 278 278 278 278 278 278 278 278 278 278 278 278 278 278 279 279 279 279 279 279 280 280 280 280 280 280 280 280 280 280 280 280 280 280 280 280 280 280 280 280 280 280 280 281 281 281 281 281 281 281 281 281 281 281 282 282 282 282 282 282 282 282 282 282 282 282 282 282 282 283 283 283 283 283 283 283 283 283 283
278 278 278 278 278 278 278 278 278 278 278 278 278 278 278 278 278 278 278 278 279 279 279 279 279 279 279 280 280 280 280 280 280 280 280 280 280 280 280 281 280 280 280 280 280 280 280 280 280 281 281 281 281 281 281 281 281 281 281 281 282 282 282 282 282 282 282 282 282 282 282 282 282 282 282 283 283 283 283 283 283 283 283 283 283 283
278 278 278 278 278 278 277 277 277 277 277 277 277 277 278 278 278 278 278 278 279 279 279 279 279 279 279 279 279 280 280 280 280 280 280 280 281 281 281 281 281 281 281 281 281 281 281 281 281 281 281 281 281 281 281 281 281 281 281 282 282 282 282 282 282 282 282 282 282 282 282 283 283 283 283 283 283 283 283 283 283 283 283 284 284 284
278 278 277 277 277 277 277 277 277 277 277 277 277 277 277 278 278 278 278 278 279 279 279 279 279 279 279 279 279 280 280 280 280 280 280 280 281 281 281 281 281 281 281 281 281 281 281 281 281 281 281 281 281 281 281 281 282 282 282 282 282 282 282 282 282 282 282 283 283 283 283 283 283 283 283 283 283 284 284 284 284 284 284 284 284 284
277 277 277 277 277 277 277 277 277 277 277 277 277 277 277 278 278 278 278 278 278 278 278 279 279 279 279 279 279 279 280 280 280 280 280 280 281 281 281 281 281 281 281 281 281 281 281 282 282 282 282 281 281 281 282 282 282 282 282 282 282 282 282 282 283 283 283 283 283 283 283 283 283 283 283 283 284 284 284 284 284 284 284 285 285 285
277 277 277 277 277 277 277 277 277 277 277 277 277 277 277 278 278 278 278 278 278 278 279 279 279 279 279 279 279 279 280 280 280 280 280 281 281 281 281 281 281 281 281 281 281 282 282 282 282 282 282 282 282 282 282 282 282 283 283 283 283 283 283 283 283 283 283 284 284 284 284 284 284 284 284 284 284 284 284 285 285 285 285 285 285 285
277 277 277 277 277 277 277 277 277 277 277 277 277 277 277 278 278 278 278 278 278 278 278 279 279 279 279 279 279 280 280 280 280 280 280 281 281 281 281 281 281 281 281 281 282 282 282 282 282 283 283 283 283 283 283 283 283 283 283 284 284 284 284 284 284 284 284 284 284 284 284 284 284 284 284 284 284 285 285 285 285 285 285 285 285 285
Wind_Speed
12 13 13 14 15 16 17 18 19 20 21 22 22 22 22 22 23 24 24 25 25 25 25 24 24 23 23 23 23 23 23 22 22 22 22 22 22 22 23 23 23 23 23 23 24 24 24 24 24 24 24 24 24 24 24 24 24 24 24 24 24 25 25 25 25 25 25 26 26 26 26 26 26 27 27 27 27 27 27 28 28 29 29 29 30 30
13 13 13 13 14 15 17 18 18 19 20 21 21 22 22 23 24 24 25 25 24 24 24 24 24 23 23 23 24 23 23 22 22 22 23 23 23 23 23 23 24 24 24 24 24 24 24 24 24 24 24 23 24 24 24 24 24 24 24 24 25 25 25 25 25 26 26 26 26 26 26 27 27 27 27 28 28 28 28 28 29 29 30 30 30 30
12 12 12 13 14 15 16 17 18 18 19 20 21 21 22 23 24 24 25 25 24 24 23 23 23 23 23 24 24 24 23 23 22 23 23 23 23 24 24 24 24 24 24 24 24 24 24 24 24 24 24 24 24 24 24 25 25 25 25 25 25 25 25 26 26 26 26 27 27 27 27 27 28 28 28 28 28 29 29 29 29 30 30 30 30 30
12 12 13 14 14 15 16 16 17 18 19 20 21 21 22 22 23 23 24 24 24 23 23 22 22 22 23 24 25 25 24 23 23 23 23 24 24 24 24 24 25 25 24 24 24 24 24 24 23 24 24 24 24 25 25 25 25 25 25 25 26 26 26 26 27 27 27 27 28 28 28 28 28 28 28 29 29 29 29 29 29 29 29 29 29 29
12 12 13 14 14 15 15 16 17 18 19 20 21 21 21 21 22 23 23 23 22 22 22 21 22 22 23 24 25 25 24 23 23 23 23 24 24 24 24 24 24 24 24 24 24 24 24 24 24 24 24 24 25 25 26 26 26 26 26 26 27 27 27 27 27 28 28 28 28 28 28 28 28 28 28 29 29 29 29 29 29 29 29 28 28 28
12 12 13 13 14 15 16 16 18 19 20 21 21 20 20 20 21 21 21 21 21 21 21 21 22 23 24 25 25 25 24 23 23 23 24 24 24 24 24 24 24 24 24 24 24 24 24 24 24 24 25 25 25 26 26 26 27 27 27 27 28 28 28 28 28 28 28 28 28 28 28 28 28 28 28 28 28 28 28 28 28 28 28 28 28 28
13 13 13 14 14 15 16 17 18 19 20 21 21 20 20 20 20 20 19 19 19 20 20 22 23 23 24 24 25 24 24 24 24 24 24 23 23 23 23 23 23 23 23 23 24 24 24 24 25 25 25 26 26 27 27 27 27 28 28 28 28 28 28 28 28 28 27 27 27 27 27 27 27 27 27 27 27 27 28 28 28 28 28 28 28 28
14 14 14 14 15 16 17 18 19 19 20 20 20 20 20 19 19 18 17 17 18 19 21 22 23 23 24 24 24 24 24 25 25 24 24 23 23 23 23 23 23 23 23 23 24 24 24 25 25 26 26 27 27 28 28 28 28 28 28 28 28 28 27 27 27 26 26 26 26 26 26 26 26 26 26 26 27 27 27 27 27 27 27 27 27 28
15 15 14 14 15 17 18 19 19 19 18 18 18 19 19 19 19 18 17 17 18 19 20 21 22 23 23 23 24 24 24 24 24 24 23 23 23 23 23 23 23 23 23 23 24 24 25 25 26 27 27 28 28 29 29 29 29 28 28 28 27 27 26 26 26 25 25 25 25 25 25 25 25 25 26 26 26 26 26 27 27 27 27 27 27 28
14 14 15 15 16 17 19 20 20 19 17 17 16 17 17 18 18 18 18 19 19 19 19 20 21 22 23 24 24 24 24 24 23 23 22 22 22 23 23 22 23 23 23 23 24 25 25 26 27 27 28 28 29 29 29 28 28 28 27 27 26 26 26 25 25 25 25 25 25 25 25 25 25 25 25 26 26 26 26 27 27 27 27 27 28 28
13 14 15 16 17 18 18 19 19 18 16 15 15 15 15 15 16 17 19 20 20 20 19 19 20 21 23 24 25 25 25 24 24 24 23 23 22 22 22 22 22 22 23 24 25 26 26 27 27 28 28 28 28 28 28 27 27 26 26 26 26 26 26 25 25 25 25 25 25 25 25 25 25 25 26 26 26 26 27 27 27 27 27 28 28 28
13 14 15 17 18 18 17 16 15 14 13 14 15 15 15 14 15 16 18 19 20 21 21 20 20 21 22 24 25 25 24 24 24 24 24 23 22 22 21 22 22 23 24 25 26 26 27 27 27 27 27 28 27 27 27 26 26 26 26 26 26 26 25 25 25 25 25 25 25 25 25 26 26 26 26 26 27 27 27 27 28 28 28 28 28 29
14 15 15 17 17 15 13 12 11 12 13 14 15 15 15 16 16 16 17 18 20 20 21 21 21 22 22 23 23 23 23 23 23 23 22 21 21 21 21 22 24 25 26 26 27 27 28 27 27 27 27 27 27 27 27 27 27 26 26 26 26 25 25 25 25 25 25 25 26 26 26 26 26 27 27 27 27 27 28 28 28 28 28 28 29 29
15 15 15 14 13 12 10 10 12 14 15 15 15 16 16 17 17 17 18 18 19 20 21 21 21 21 21 21 21 21 21 21 21 21 20 20 20 21 22 24 25 25 26 26 27 28 28 27 27 27 28 28 28 28 28 28 27 26 26 26 26 26 26 26 26 26 26 26 26 27 27 27 27 27 27 27 27 28 28 28 28 29 29 29 29 29
14 14 13 11 10 10 11 13 15 16 16 16 16 16 17 17 17 17 17 18 19 20 20 20 21 20 19 19 19 19 19 19 19 20 21 22 22 23 24 24 25 25 26 26 27 27 27 27 27 28 29 29 30 30 28 27 27 26 26 26 26 27 27 27 27 27 27 27 27 27 27 27 27 27 27 28 28 28 28 29 29 29 29 29 29 29
13 12 11 10 10 12 14 16 17 17 17 16 16 16 16 16 16 17 17 18 19 19 19 19 19 19 18 18 18 18 18 18 19 20 23 24 24 24 23 24 25 26 26 26 26 27 27 27 27 28 29 29 29 28 27 27 27 27 27 27 27 28 28 28 28 28 27 27 27 27 27 27 27 27 28 28 28 28 29 29 29 29 29 29 29 29
10 8 8 9 12 15 16 17 16 16 16 16 15 15 15 16 17 18 18 19 19 18 17 16 14 13 15 18 19 18 18 19 20 22 24 26 26 25 24 23 24 25 26 26 26 26 27 27 27 28 29 29 29 28 27 27 28 28 28 28 28 28 28 28 28 28 28 28 28 28 28 28 28 28 28 28 28 29 29 29 29 30 29 29 29 29
8 8 10 12 14 16 17 16 16 16 15 15 15 16 16 17 18 19 19 19 18 17 17 16 14 12 12 15 19 20 20 21 22 24 25 26 27 26 24 23 23 24 25 25 26 26 26 27 28 28 29 29 28 28 28 29 29 29 29 29 29 29 29 28 28 28 28 28 28 28 28 28 28 28 28 28 29 29 29 29 30 30 30 29 29 29
10 11 13 15 16 16 17 16 16 15 15 15 16 17 18 19 19 19 19 19 18 17 16 15 15 16 15 18 21 22 22 22 23 24 25 26 27 26 23 22 22 23 25 25 26 26 26 27 28 29 29 29 29 29 29 29 29 29 29 29 29 29 29 29 29 29 29 29 29 29 29 29 29 29 28 29 29 29 29 29 29 29 29 29 29 30
14 15 15 16 16 17 16 16 16 15 15 16 17 18 19 20 20 20 19 18 17 16 15 14 15 17 18 20 22 24 24 23 23 23 24 25 26 25 23 21 21 23 24 25 26 26 26 27 28 29 29 29 29 29 29 29 29 30 30 30 30 30 30 30 30 29 29 29 29 29 29 29 29 29 28 28 28 28 28 29 29 29 29 29 29 30
16 16 16 16 16 16 16 16 16 16 17 19 20 21 21 21 20 19 18 16 15 15 15 14 16 18 20 22 24 26 25 23 22 22 22 23 24 24 22 21 21 23 25 26 26 26 26 27 28 29 29 29 29 29 29 30 30 30 30 30 30 30 30 30 30 30 30 29 29 29 29 29 29 29 29 28 28 28 28 28 28 29 29 29 29 30
17 17 17 16 16 16 17 17 18 19 20 22 22 21 21 20 18 17 16 15 15 15 16 17 19 21 23 25 26 26 25 22 20 20 20 20 22 23 22 21 21 22 24 25 26 25 26 26 27 28 29 29 29 29 30 30 30 31 31 31 31 31 30 30 30 30 30 30 29 29 29 29 29 29 29 29 29 29 29 29 29 29 29 29 30 30
17 17 18 17 17 17 18 19 21 22 22 23 23 22 20 19 18 17 17 17 17 18 20 22 23 24 24 24 25 24 23 21 20 19 18 16 19 23 22 21 21 22 24 25 25 26 26 26 27 28 28 28 29 29 30 30 31 31 31 31 31 31 31 30 30 30 30 30 30 30 30 30 29 29 29 29 29 29 29 29 29 29 29 30 30 30
16 16 16 16 17 17 19 20 21 22 22 21 20 19 19 19 19 20 20 21 21 22 22 23 23 23 22 22 22 22 21 19 18 17 16 16 19 22 23 21 21 22 24 25 26 26 26 27 27 28 28 28 28 29 30 30 31 31 31 31 31 31 31 30 30 30 30 30 30 30 30 30 30 30 30 30 30 30 30 30 30 30 29 30 30 30
16 17 17 17 17 17 18 19 20 20 20 20 19 20 20 21 22 23 24 23 22 21 20 20 20 20 20 20 20 20 20 18 17 16 16 16 19 22 23 21 21 22 25 26 26 26 26 27 28 28 28 28 29 29 29 30 30 30 30 30 30 30 30 30 30 30 30 31 31 31 31 31 31 31 31 31 30 30 30 30 30 29 29 30 30 30
16 16 16 17 16 17 18 18 19 20 20 21 22 23 23 23 22 22 22 20 18 17 17 17 17 17 19 19 19 19 19 18 17 16 16 16 19 22 23 22 21 22 25 26 26 25 25 27 28 28 28 29 29 29 29 29 30 30 30 30 30 30 30 30 30 31 31 31 31 32 32 32 32 31 31 31 30 30 30 30 29 29 29 30 30 30
14 15 15 15 16 16 17 18 19 20 21 22 22 21 20 20 19 18 17 16 15 15 14 14 14 15 18 18 18 19 20 18 17 16 16 18 19 20 22 22 21 22 24 26 26 26 26 27 28 28 28 29 29 29 28 28 28 28 29 29 29 30 30 30 31 31 32 32 32 32 32 32 31 31 31 30 30 30 30 30 29 30 30 30 30 30
14 14 14 15 16 17 18 19 20 21 22 21 20 18 17 17 16 15 14 15 15 14 14 14 13 13 14 16 19 21 21 20 18 17 17 17 17 18 21 21 21 22 23 25 27 27 26 26 27 27 28 28 28 27 27 27 27 27 28 29 30 30 31 31 31 31 31 31 31 31 31 31 31 31 30 30 30 30 30 29 29 29 29 28 27 27
15 15 16 17 18 19 21 21 22 21 20 18 16 15 14 14 14 14 15 15 15 15 15 15 15 14 15 18 21 22 22 20 18 17 15 15 15 18 20 21 21 21 22 24 26 27 26 24 24 24 25 26 26 26 26 26 27 28 29 30 30 31 31 30 30 30 30 30 30 30 31 31 30 30 30 30 30 30 29 29 29 29 28 27 26 26
16 17 18 20 21 22 22 21 20 18 16 15 14 13 13 13 14 15 16 16 16 16 16 16 16 16 16 17 18 18 17 18 16 14 13 13 15 18 20 21 21 21 21 20 18 17 20 24 23 22 23 24 25 26 27 27 28 28 29 29 30 30 29 29 29 29 29 30 30 30 30 30 30 30 30 30 29 29 29 29 28 27 26 26 26 26
18 20 22 23 23 23 22 20 18 16 14 14 13 13 13 13 14 15 16 16 16 16 16 16 16 16 16 14 10 7 9 16 17 14 15 15 16 18 20 20 21 21 20 16 8 5 11 18 22 24 23 24 26 27 27 27 27 27 28 28 29 29 29 29 29 29 29 29 29 29 29 29 29 29 29 29 29 29 29 29 28 27 26 25 25 24
22 23 24 24 24 22 20 18 16 15 14 14 14 14 14 13 14 14 15 15 15 16 16 16 17 17 17 15 11 10 13 20 21 19 17 17 18 19 19 19 20 21 21 19 15 10 8 10 19 26 26 26 27 27 28 27 27 27 28 28 28 29 29 29 28 28 29 29 29 29 29 29 29 29 29 29 29 29 29 28 27 26 25 25 24 23
24 24 25 24 23 21 19 17 15 15 14 14 15 14 14 14 14 14 14 15 15 16 17 17 18 18 18 19 18 19 22 24 23 21 19 17 17 19 20 20 20 21 22 21 21 19 15 15 21 27 28 28 27 27 27 27 27 26 27 27 28 29 29 29 28 28 28 29 29 29 29 29 29 29 28 28 28 28 28 27 27 26 25 24 23 23
24 25 24 23 21 19 17 16 15 14 14 14 14 14 14 14 14 15 15 16 16 17 18 18 18 18 19 19 20 22 25 25 23 21 19 18 18 19 21 21 21 21 21 21 21 21 21 23 24 24 25 28 28 27 26 26 26 26 27 27 28 29 29 29 28 28 29 29 29 29 29 29 29 29 28 28 28 27 27 26 26 25 24 24 24 24
24 23 22 20 18 17 16 16 15 14 14 14 14 14 15 15 16 16 17 17 17 18 18 19 19 19 20 19 20 22 25 26 24 22 20 19 20 21 22 22 22 21 20 20 21 20 20 22 24 24 23 25 28 28 27 26 26 26 27 27 27 28 28 28 28 28 29 29 29 29 29 29 29 29 29 28 28 27 26 26 26 25 25 25 25 25
21 19 18 17 16 16 16 16 15 15 15 15 15 16 16 16 17 17 17 18 18 18 19 19 20 21 21 22 22 24 26 27 27 25 22 22 22 22 22 23 23 22 20 21 21 20 19 21 23 24 23 22 23 26 28 27 26 26 26 27 27 27 28 28 28 28 28 28 28 29 29 29 29 28 28 28 27 27 27 27 27 26 26 26 26 26
16 16 15 15 15 15 15 15 15 15 15 16 16 17 17 17 18 18 18 19 20 20 21 21 21 21 22 23 24 26 27 28 28 27 26 26 25 25 24 24 25 24 22 21 21 21 21 20 21 23 22 21 21 23 26 28 28 27 27 27 27 27 28 28 27 27 27 27 27 28 28 28 27 27 28 28 27 27 27 27 27 27 27 27 26 26
14 14 14 14 14 14 14 15 15 15 15 16 17 18 19 19 19 19 20 20 21 21 22 22 22 22 23 24 26 28 29 31 31 32 31 30 29 28 26 26 25 25 23 22 22 23 22 19 16 14 17 21 23 25 27 28 28 28 28 28 28 28 28 27 26 26 26 26 26 27 27 27 27 27 27 28 27 27 28 28 28 27 26 26 26 26
13 13 13 13 13 14 14 15 15 16 17 18 18 19 19 20 20 20 20 20 21 21 22 22 23 24 25 27 28 28 29 30 31 31 31 31 30 29 27 26 26 26 26 25 24 24 22 20 17 15 15 19 23 27 28 28 27 28 29 29 29 28 27 26 25 25 25 25 26 27 27 27 27 27 27 27 27 26 27 27 27 27 26 26 26 26
12 13 13 13 14 14 14 15 16 17 18 19 19 19 19 19 19 20 20 20 20 21 21 22 23 24 25 25 25 25 26 28 29 29 29 30 29 28 27 27 27 27 26 26 25 24 23 22 23 23 23 22 23 25 27 28 28 28 28 26 26 27 28 27 27 27 27 26 26 27 27 27 27 26 26 26 26 26 26 26 27 27 26 25 25 25
12 13 13 14 14 15 15 16 17 18 18 19 19 19 19 19 19 20 21 21 21 21 21 22 22 23 24 25 25 24 25 26 26 27 27 27 28 28 28 28 27 27 27 26 25 24 24 24 24 26 26 26 26 27 28 29 29 29 27 25 26 28 30 30 29 27 26 26 26 26 26 26 26 26 25 26 26 27 27 27 27 28 28 27 26 25
12 13 14 14 15 16 16 17 17 17 18 18 18 18 18 18 19 20 20 21 22 22 21 21 22 23 25 25 25 24 23 24 24 24 25 25 26 26 27 28 28 27 27 26 25 25 25 25 25 25 26 26 25 26 27 29 30 29 27 26 27 29 30 30 28 26 25 25 25 26 25 26 26 26 26 26 27 28 28 28 28 28 28 27 27 26
13 14 15 15 16 16 17 17 17 17 17 17 18 18 18 18 19 19 20 21 21 22 22 22 22 22 24 25 26 26 25 24 23 23 23 23 24 24 25 26 27 28 28 26 25 25 26 26 25 25 26 26 26 25 26 29 30 30 29 28 27 25 22 26 28 27 25 25 25 25 26 26 26 26 26 26 27 28 28 28 28 29 28 28 28 28
14 15 15 16 16 16 17 17 17 17 18 18 18 18 19 19 19 19 20 20 21 22 22 21 22 22 22 24 25 27 27 25 24 22 22 22 22 23 24 25 26 27 27 26 25 25 25 26 27 27 27 26 25 25 26 28 29 29 30 29 27 25 23 26 28 29 27 27 27 27 27 27 27 27 27 26 27 28 28 28 29 29 29 30 30 30
14 15 15 15 16 16 16 17 17 18 18 18 18 19 19 19 19 19 19 20 21 21 21 21 20 20 21 22 24 25 26 27 26 24 23 22 22 21 22 23 24 25 26 26 26 25 25 25 27 28 28 26 25 25 26 27 28 29 30 29 28 27 28 29 29 28 27 27 27 27 27 27 26 26 26 26 26 26 26 26 26 27 29 29 29 30
14 15 15 16 16 16 17 17 18 18 18 18 18 19 19 19 19 19 19 20 20 21 21 20 19 18 19 21 23 24 25 27 27 27 26 24 23 22 22 23 23 24 25 26 27 27 27 27 28 28 28 27 27 27 28 27 27 27 28 29 28 27 28 28 28 28 27 27 27 28 29 27 26 25 25 26 27 27 26 26 26 26 27 28 28 30
14 15 15 16 17 17 17 18 18 18 18 18 18 19 19 19 19 19 19 19 19 19 20 20 19 18 19 21 22 22 23 25 27 28 28 27 26 25 24 23 23 23 24 25 25 27 28 29 30 29 27 26 26 27 29 28 27 27 27 28 28 27 27 28 28 28 28 27 28 28 29 28 27 26 26 27 27 27 27 26 26 27 27 28 28 29
14 15 16 16 17 17 17 17 17 17 18 18 19 19 19 18 18 19 19 19 19 19 19 19 19 19 20 21 21 21 22 23 25 26 27 27 27 27 26 25 24 24 23 24 25 26 27 29 30 30 29 27 25 26 28 29 28 27 27 27 27 26 27 28 29 29 28 28 28 29 29 27 26 25 26 26 26 27 27 26 26 26 26 27 28 28
15 15 16 16 17 17 17 18 18 18 18 19 19 19 19 19 18 18 18 19 19 19 18 18 19 19 20 21 22 22 23 23 24 25 26 26 26 26 26 26 26 25 25 25 25 25 26 26 27 28 28 28 27 27 28 29 29 28 28 27 26 25 26 27 29 29 28 28 29 29 29 27 26 25 25 25 26 27 28 27 27 26 26 26 26 27
15 16 16 16 17 17 17 18 18 18 18 19 19 19 20 20 19 19 19 18 18 18 18 18 19 19 20 21 22 23 23 23 24 24 25 26 26 25 26 26 26 25 25 25 25 24 23 23 23 24 24 25 26 27 28 28 29 28 27 26 26 25 25 26 28 28 27 27 27 28 27 27 26 25 24 24 25 27 28 27 27 26 25 24 25 26
16 16 16 16 17 17 17 18 18 18 18 19 19 19 20 20 20 19 19 19 18 18 18 18 19 19 20 21 22 22 23 23 23 24 25 26 25 25 24 24 24 24 23 22 21 20 19 18 18 20 22 22 22 23 25 27 27 26 26 26 26 26 25 26 27 27 27 26 26 26 26 25 25 24 23 23 23 23 24 25 26 25 24 23 23 25
Wind_Direction
288 291 294 297 302 305 305 307 309 311 312 314 316 317 317 317 316 316 316 316 317 317 317 317 317 317 317 316 316 315 313 309 307 306 305 305 305 304 303 303 303 302 302 302 301 301 300 300 299 299 298 297 296 296 295 294 293 291 290 290 289 288 287 287 286 286 285 284 284 283 283 283 282 281 281 281 280 280 279 279 279 278 278 278 277 277
291 293 296 299 303 305 305 307 309 310 311 313 315 316 315 315 314 314 315 315 315 316 316 316 315 315 315 315 315 314 312 308 306 306 305 305 305 304 304 303 303 302 302 302 302 301 301 300 299 299 298 297 297 296 295 294 293 292 291 290 289 288 288 287 287 286 285 285 284 284 283 283 282 281 280 280 279 279 279 278 277 277 276 276 276 276
294 296 298 301 304 304 304 306 308 310 311 311 312 313 313 312 312 312 313 313 314 314 314 314 314 314 314 313 313 313 311 308 307 306 305 305 305 304 304 304 303 303 303 303 302 302 301 301 300 299 299 298 297 297 296 294 293 292 291 290 290 289 288 287 286 286 285 284 284 284 283 282 282 281 280 279 278 278 278 277 276 275 275 275 276 276
295 298 300 304 304 304 303 306 308 309 309 309 310 310 310 310 310 310 311 312 312 313 313 314 313 313 312 312 312 312 310 308 307 306 306 306 305 305 304 304 304 304 304 303 303 302 302 301 300 300 299 298 297 297 296 295 294 293 292 291 290 289 289 288 287 287 286 285 284 283 283 282 281 280 280 278 278 277 276 276 275 275 275 275 275 275
294 297 301 305 305 304 304 306 308 308 308 308 308 309 309 308 308 309 310 311 311 312 312 313 312 312 311 310 311 311 310 309 308 307 306 306 305 305 305 304 304 304 304 303 303 302 301 300 300 299 298 298 297 296 296 295 295 294 293 292 291 290 290 289 288 288 287 285 284 283 282 281 280 279 278 277 277 276 275 275 275 275 275 275 275 275
293 297 301 303 303 303 305 306 307 308 308 308 307 307 307 307 308 308 309 310 311 311 311 311 310 309 309 309 310 311 311 310 309 308 307 307 306 305 304 304 303 303 303 302 302 301 300 299 299 298 298 297 297 296 296 296 295 294 293 292 291 291 290 289 289 287 287 285 284 283 281 280 279 279 278 277 276 275 275 274 274 274 274 274 274 274
294 297 301 302 301 302 304 305 306 307 307 306 306 306 307 307 307 307 308 309 310 310 310 309 309 309 309 310 311 312 312 312 311 310 309 308 306 305 304 303 302 302 301 301 300 299 299 298 298 297 297 297 296 296 296 295 295 294 293 293 292 291 290 290 289 288 286 285 284 283 282 280 279 278 277 276 276 275 274 274 273 273 273 273 273 273
294 298 301 302 303 304 304 304 305 305 305 304 304 305 306 307 307 307 308 308 309 310 310 310 310 310 310 312 313 313 313 313 312 311 310 308 307 306 304 303 302 301 300 300 299 298 298 298 297 297 297 296 296 296 295 295 294 294 293 293 292 291 290 290 289 288 287 286 285 284 282 281 280 278 278 276 275 275 274 273 273 273 273 273 273 272
293 297 300 302 304 306 306 304 304 304 304 302 301 303 305 307 308 309 310 310 310 311 312 312 311 311 311 313 313 313 312 310 309 308 308 307 306 305 304 302 301 300 299 299 298 298 297 297 297 297 296 296 296 295 295 295 294 293 293 292 292 291 290 289 289 288 287 286 285 284 283 281 280 279 278 277 276 275 274 273 273 273 273 273 273 272
292 295 300 302 303 304 303 302 302 302 301 299 299 302 304 306 309 312 313 313 312 313 313 312 311 311 311 312 313 312 311 309 307 306 305 303 302 301 301 299 299 298 298 298 298 297 297 296 296 296 296 295 295 295 295 294 294 294 293 292 292 291 290 289 289 288 287 286 285 284 283 282 280 279 278 277 276 275 274 274 273 273 273 273 273 272
293 297 301 303 303 301 298 295 295 297 299 301 303 304 305 307 311 314 315 314 313 314 313 312 310 310 310 311 312 311 310 308 306 306 305 304 303 302 300 299 297 297 297 297 297 296 296 296 296 296 295 295 295 295 294 294 294 294 293 292 292 291 290 290 289 288 287 286 285 284 283 282 281 280 279 278 277 276 276 275 274 274 274 274 273 273
295 300 301 302 302 299 294 291 291 296 303 308 310 309 309 310 313 314 312 311 311 312 312 311 309 308 308 308 308 309 308 306 305 306 306 306 306 305 303 302 301 299 298 297 297 296 296 296 296 296 295 295 294 294 294 294 294 293 293 292 292 291 290 289 289 288 287 286 285 284 284 283 282 281 280 279 279 278 277 276 276 275 274 274 273 273
296 299 299 298 296 293 290 292 298 305 310 311 311 310 310 312 313 312 308 306 307 308 309 309 308 307 306 306 306 306 305 305 304 304 304 305 305 305 304 303 302 300 299 298 297 296 296 297 297 296 295 294 294 294 294 294 293 293 293 292 292 291 291 290 289 288 287 286 286 285 285 284 283 282 281 280 280 279 278 277 276 276 275 275 274 274
297 297 294 290 288 288 292 302 309 310 310 309 308 307 308 310 311 309 307 305 304 305 306 305 304 305 306 306 305 305 304 303 303 304 303 302 302 303 302 301 300 299 298 298 296 296 296 297 296 296 295 294 294 294 295 295 295 294 293 293 292 292 291 290 289 288 288 287 286 286 285 285 284 283 282 281 280 279 278 277 277 276 276 275 275 274
294 290 286 283 286 295 304 309 309 307 305 305 305 306 307 308 308 307 306 304 304 305 306 304 303 303 304 305 306 306 305 304 303 304 303 301 300 301 301 300 299 298 297 296 295 295 296 296 295 295 295 295 296 296 297 296 295 294 293 293 292 292 291 291 290 289 288 288 287 286 286 285 284 284 283 282 281 280 279 278 278 277 277 276 275 275
284 279 280 288 297 303 306 306 304 303 302 303 304 306 307 306 306 305 304 302 303 304 304 305 305 305 305 305 307 308 308 306 305 304 303 301 300 300 301 300 299 297 296 295 294 294 295 295 295 295 295 296 296 297 296 294 293 293 293 293 293 292 292 291 290 290 289 288 287 287 286 285 285 284 283 282 281 281 280 279 279 278 277 277 276 275
274 276 290 302 304 304 303 303 301 301 301 302 303 303 303 302 302 301 299 298 299 300 300 301 303 305 306 307 308 309 309 309 308 305 303 300 300 300 301 300 298 296 295 294 293 293 294 294 294 295 295 296 296 296 295 294 294 293 293 293 293 292 292 291 291 290 289 289 288 287 286 286 285 285 284 283 282 281 280 279 279 278 277 277 277 276
284 296 304 303 302 301 302 302 301 300 301 301 302 302 300 299 297 296 294 293 293 294 295 295 296 298 302 304 306 307 309 310 309 306 303 300 299 300 301 300 297 294 293 292 291 292 293 293 294 294 295 296 295 295 294 294 293 293 293 293 292 292 292 291 291 290 290 289 289 288 287 287 286 285 285 284 282 281 280 280 279 278 278 277 277 276
302 303 302 300 298 298 299 299 299 299 299 300 301 301 299 297 294 292 290 289 288 288 289 290 292 294 295 297 300 304 308 310 308 305 302 299 299 300 301 300 297 293 292 290 290 292 293 293 293 294 295 295 295 294 294 294 294 294 293 293 293 292 292 291 291 291 290 290 289 289 288 287 287 286 285 285 284 283 282 281 280 279 278 278 277 276
301 297 295 294 295 296 295 294 294 295 296 297 297 296 294 293 292 290 289 287 287 286 286 286 289 293 296 297 299 303 307 308 307 303 300 297 297 299 300 299 296 293 291 290 290 292 292 292 293 294 295 295 295 294 294 294 294 293 293 293 293 292 292 291 291 290 290 290 289 289 289 288 288 287 287 286 285 284 283 282 281 280 279 278 277 276
295 292 291 292 293 292 291 291 292 293 294 295 293 290 289 289 289 289 289 290 290 289 290 288 291 295 298 299 299 301 304 306 304 301 298 297 296 297 298 298 296 293 291 291 291 292 292 292 293 293 294 294 294 294 294 293 293 293 292 292 292 291 291 291 290 290 290 289 289 289 289 289 288 288 287 286 285 284 283 282 281 280 280 279 278 277
292 291 292 292 289 287 287 289 291 293 293 290 286 283 283 285 286 289 291 293 294 295 296 295 296 297 297 296 296 298 300 301 299 297 297 295 294 295 297 298 296 293 291 292 293 294 294 293 292 292 292 292 292 293 292 292 292 292 292 291 291 291 290 290 290 290 289 289 289 289 289 288 288 287 286 286 285 284 284 283 282 282 281 280 279 279
292 291 292 291 289 287 287 288 290 291 290 286 282 280 281 284 287 291 296 298 299 299 298 297 297 296 295 294 294 295 297 296 295 293 293 291 291 294 297 299 298 294 292 293 295 296 296 294 293 292 292 291 291 291 292 291 291 291 291 290 290 290 290 289 289 289 289 289 289 289 289 288 288 288 287 287 286 286 285 285 284 283 282 281 280 279
291 291 291 291 290 289 289 288 289 290 291 292 293 294 297 299 301 302 302 301 299 298 298 298 297 297 295 295 295 295 295 295 294 291 288 286 287 292 296 298 298 295 293 294 296 298 297 295 294 293 292 291 291 291 291 291 290 289 289 289 289 289 289 289 289 289 289 289 289 289 289 289 289 289 289 288 288 287 286 285 284 283 283 282 280 279
292 292 292 292 291 290 291 292 294 297 302 306 309 311 310 307 304 300 297 296 296 298 299 300 299 297 297 298 297 296 295 295 294 289 284 284 287 290 294 296 296 295 295 296 298 299 298 296 295 294 293 292 291 290 290 289 289 289 288 289 289 289 289 289 289 289 290 290 290 290 290 290 290 290 289 288 288 287 286 285 285 284 283 282 281 280
293 293 292 293 292 293 294 297 300 303 306 307 306 305 303 302 300 298 296 296 298 301 302 301 298 296 297 298 297 296 297 297 295 288 282 283 286 289 292 295 295 294 295 298 299 300 299 297 296 295 294 292 291 290 289 289 289 289 289 289 290 290 290 290 290 290 291 291 291 290 290 290 290 289 289 288 288 287 286 286 285 284 283 283 282 281
293 292 292 294 295 297 298 299 300 300 300 300 299 299 300 300 299 297 296 297 301 304 303 300 297 297 298 297 296 296 297 298 295 289 283 282 283 287 291 294 296 296 297 298 299 299 298 297 296 295 294 292 291 290 290 290 290 290 291 291 291 291 291 291 291 291 291 291 291 290 290 290 290 289 289 288 288 287 287 286 286 285 285 284 284 282
292 291 291 293 294 296 297 298 299 299 299 299 299 299 299 299 298 295 295 299 303 303 298 294 293 294 296 296 296 297 298 296 294 291 287 282 280 283 289 294 297 298 299 299 299 299 296 294 293 293 293 293 293 293 292 292 292 292 292 292 292 292 292 292 291 291 291 290 290 290 290 289 289 289 289 288 288 288 287 287 287 287 287 286 285 283
291 289 289 291 294 298 301 302 303 304 305 304 303 302 300 298 296 296 297 300 301 297 291 288 287 288 291 294 296 297 296 294 293 294 294 288 283 284 290 296 299 300 301 301 302 301 298 295 293 293 294 295 295 295 295 295 294 294 293 293 293 293 292 292 291 291 291 291 290 290 289 289 289 289 289 289 289 288 288 288 288 288 288 286 285 283
294 295 297 301 304 307 310 311 312 313 314 311 307 303 301 297 294 294 294 295 292 288 285 284 285 286 290 294 297 298 295 295 297 302 304 298 290 290 295 298 298 299 302 304 304 303 300 299 298 297 297 298 298 298 297 297 296 295 295 294 294 293 292 292 292 292 292 291 291 290 290 289 289 289 289 289 289 288 288 288 288 288 288 286 285 283
306 309 311 312 314 316 317 318 319 320 320 316 310 306 302 297 293 291 290 288 285 281 281 282 284 286 288 292 295 295 292 295 299 305 308 301 293 292 296 297 298 298 300 301 302 304 303 303 303 302 301 301 300 298 298 297 296 296 295 294 293 293 293 293 293 293 292 292 291 291 290 290 290 289 289 289 289 288 288 288 288 287 287 285 284 282
313 315 316 317 318 319 320 322 322 322 320 317 313 309 304 298 294 291 289 286 282 280 280 281 283 284 284 283 281 280 284 291 296 301 304 298 293 293 295 295 296 297 298 295 292 290 297 301 302 303 303 301 299 298 297 297 296 295 295 294 293 292 293 294 294 294 293 292 292 291 291 290 289 289 288 288 288 287 287 287 286 286 285 284 282 281
315 315 316 317 318 320 322 323 323 321 318 315 312 309 305 300 296 292 289 286 284 282 280 281 282 283 283 281 279 279 282 286 292 297 300 297 294 294 296 295 295 296 297 295 291 288 286 289 296 300 301 300 298 297 296 296 295 294 293 293 292 292 293 294 293 293 293 293 292 292 291 290 289 288 288 287 286 286 285 285 285 283 282 281 279 278
313 313 314 317 320 323 324 324 322 319 316 313 310 307 304 301 298 294 291 288 286 283 280 278 278 279 281 282 281 281 283 286 290 295 298 297 295 294 295 296 295 296 297 296 294 291 288 289 292 296 299 299 298 297 296 295 295 294 292 291 290 290 291 292 292 292 291 292 291 291 290 290 289 288 288 287 286 285 284 283 283 282 279 278 276 276
311 314 317 321 324 324 323 322 319 317 314 311 309 307 305 303 300 297 293 291 288 285 282 277 275 275 276 278 280 282 284 287 291 295 296 294 292 292 293 293 294 295 295 294 294 294 292 291 292 294 296 298 298 297 296 295 295 294 293 291 290 289 289 290 290 290 290 290 289 289 289 288 288 288 287 287 286 285 285 284 283 282 280 278 276 275
315 319 322 325 324 322 320 319 317 316 313 312 310 309 307 305 302 300 297 294 291 288 285 281 278 275 274 274 274 277 281 286 290 293 292 290 289 288 289 290 291 291 291 291 290 290 290 291 292 293 294 295 296 297 298 298 297 296 294 293 291 290 289 289 288 288 288 287 287 286 286 286 286 286 286 286 285 285 285 285 284 282 281 279 277 275
322 323 323 323 322 319 317 317 316 315 313 312 311 310 308 306 304 301 299 296 294 292 289 286 283 279 276 274 273 275 278 282 286 288 288 286 285 284 283 285 286 287 285 285 286 287 288 290 291 292 292 291 292 295 297 300 300 298 295 294 293 292 290 289 288 286 285 284 283 283 284 284 284 284 284 285 285 285 284 283 282 281 280 279 278 276
322 320 319 319 318 317 315 314 313 313 312 311 310 309 308 307 304 302 300 298 296 295 293 291 288 285 283 280 278 278 280 282 284 285 286 285 283 281 280 281 282 281 280 279 280 282 285 287 289 290 291 290 290 291 293 296 297 297 296 295 294 292 291 289 287 286 284 283 282 283 283 283 282 282 283 283 283 283 283 282 281 281 281 279 278 277
318 316 315 316 316 315 313 312 311 310 309 309 308 308 307 306 305 303 301 300 299 297 296 294 291 289 288 286 284 283 282 283 284 285 286 286 284 281 279 278 279 279 279 277 276 277 278 280 281 283 287 289 291 291 292 293 293 294 295 297 296 294 291 290 288 287 285 283 283 282 282 282 281 281 280 281 281 280 279 279 280 280 280 279 278 278
314 313 312 312 312 311 310 308 308 308 308 308 308 308 308 307 306 306 305 303 302 300 299 298 296 293 291 289 287 286 284 285 285 286 286 286 285 282 279 276 276 277 278 277 276 274 274 274 276 279 281 283 286 289 290 290 290 292 294 296 295 294 293 292 291 289 286 284 282 281 281 282 281 280 278 278 277 277 276 276 277 278 277 275 274 275
312 311 310 310 309 309 308 307 307 307 307 308 308 308 308 307 307 307 307 307 306 304 304 303 301 299 297 295 292 290 288 288 289 289 289 289 288 286 283 278 276 276 277 277 275 274 273 273 274 277 278 279 282 284 286 287 288 290 291 290 290 290 292 292 290 288 285 283 281 281 281 281 281 280 278 277 275 274 274 273 273 274 274 272 270 268
310 308 307 307 308 308 308 308 308 308 309 308 307 306 306 307 307 307 307 307 307 307 307 306 304 303 302 301 299 297 295 294 293 293 292 292 291 289 286 282 279 277 276 275 275 274 273 272 273 274 276 277 279 282 285 286 287 288 288 286 287 289 292 291 290 288 286 284 283 282 281 281 280 279 277 276 275 274 274 272 272 271 270 269 267 265
307 305 305 306 307 308 309 310 310 310 310 308 306 304 304 305 306 306 306 305 305 306 307 306 305 304 303 304 304 304 303 301 299 298 296 295 293 291 289 286 283 280 277 274 273 274 274 274 273 272 273 275 276 278 282 285 287 287 286 285 286 288 290 290 290 290 288 286 284 282 281 280 279 278 277 276 275 274 273 272 270 269 267 266 265 264
305 303 304 307 308 310 311 311 311 311 310 307 305 304 304 304 305 305 304 303 302 303 304 304 304 303 302 303 305 307 308 307 306 304 301 299 297 295 292 290 287 283 279 272 271 273 275 276 276 275 275 275 275 275 277 281 283 285 285 285 283 282 280 283 287 289 289 286 284 282 280 279 279 278 277 276 275 274 273 271 270 268 267 266 264 263
304 304 306 309 311 312 312 311 311 311 309 306 305 304 305 305 305 304 303 301 300 301 301 302 303 303 303 304 306 308 310 311 310 309 307 306 303 299 296 292 289 284 280 274 270 269 271 274 277 278 279 277 275 273 275 277 280 282 283 283 282 280 279 280 282 284 285 284 283 282 281 280 279 279 278 277 275 273 271 270 268 267 267 265 263 262
306 307 309 311 311 311 311 310 311 310 308 306 305 305 306 306 306 304 302 300 298 298 299 300 300 299 299 302 305 307 309 311 312 312 312 311 308 305 301 297 292 287 283 279 275 272 269 270 273 277 279 279 278 276 274 275 277 279 280 282 283 282 282 282 282 282 281 282 282 282 282 282 280 279 277 277 276 275 273 270 268 267 266 265 263 262
309 309 310 311 311 311 310 310 310 309 308 307 306 306 306 306 306 304 302 300 298 298 299 300 298 295 294 297 300 303 305 307 309 311 312 312 311 310 307 303 298 293 288 284 280 276 273 271 271 271 273 276 277 278 277 276 276 276 278 280 282 282 282 282 282 282 281 280 280 280 281 282 281 280 277 277 277 277 276 274 271 269 267 265 264 263
309 310 310 310 310 310 310 310 309 309 307 307 307 307 307 306 305 303 302 301 300 299 299 299 298 296 295 295 297 299 300 302 304 306 308 309 310 311 310 307 305 301 296 291 286 282 278 275 273 270 268 268 270 274 276 277 277 275 276 278 279 279 279 279 281 282 281 280 278 278 278 278 277 277 277 278 278 278 278 277 274 272 269 267 265 263
309 309 309 309 308 308 308 309 309 308 307 307 307 308 307 307 305 302 300 300 300 298 297 296 296 296 296 297 297 299 300 301 301 303 304 306 308 309 309 309 308 306 303 299 295 292 287 283 279 273 267 263 263 267 271 274 275 275 276 276 276 275 275 277 280 282 281 280 279 278 277 275 273 272 272 276 278 279 280 279 277 275 272 269 266 264
309 308 308 307 306 306 306 307 308 307 306 307 307 307 307 307 306 304 302 301 299 297 295 294 294 295 296 297 298 299 301 301 301 302 303 305 307 308 307 307 307 307 306 305 303 301 298 295 291 285 278 269 263 263 266 270 274 276 277 276 276 275 275 277 280 281 281 280 279 278 277 275 273 271 270 272 276 278 279 280 279 277 274 271 269 267
308 307 307 305 304 304 304 305 305 305 305 305 305 306 305 306 306 306 305 303 301 299 297 295 293 293 294 296 297 299 301 300 300 300 302 304 305 305 304 304 305 305 304 305 306 306 305 302 300 297 293 286 276 268 264 268 272 276 278 279 279 279 279 279 281 282 281 281 280 279 277 275 274 272 270 270 272 276 279 280 280 279 278 276 273 271